When you browse on this site, cookies collect data to enhance your experience and personalize the content and advertising you see.
Visit our Privacy Policy to learn more. By continuing to use the site, you agree to this use of cookies and data.

Hourly Weather Gold Coast

Today, 3 July, Friday

Time Temperature Precipitation Wind Pressure Humidity
00:00 +14°C° 0 mm 2 mps 762 mmHg 89%
01:00 +14°C° 0 mm 2 mps 762 mmHg 91%
02:00 +13°C° 0 mm 2 mps 762 mmHg 91%
03:00 +12°C° 0 mm 3 mps 762 mmHg 91%
04:00 +12°C° 0 mm 3 mps 762 mmHg 93%
05:00 +12°C° 0 mm 3 mps 763 mmHg 92%
06:00 +12°C° 0 mm 3 mps 763 mmHg 91%
07:00 +12°C° 0 mm 3 mps 763 mmHg 90%
08:00 +16°C° 0 mm 3 mps 763 mmHg 79%
09:00 +18°C° 0 mm 3 mps 763 mmHg 68%
10:00 +21°C° 0 mm 4 mps 763 mmHg 56%
11:00 +22°C° 0 mm 4 mps 763 mmHg 53%
12:00 +23°C° 0 mm 4 mps 762 mmHg 50%
13:00 +25°C° 0 mm 4 mps 761 mmHg 47%
14:00 +23°C° 0 mm 4 mps 761 mmHg 50%
15:00 +23°C° 0 mm 4 mps 760 mmHg 52%
16:00 +22°C° 0 mm 4 mps 760 mmHg 58%
17:00 +20°C° 0 mm 3 mps 760 mmHg 68%
18:00 +18°C° 0 mm 3 mps 760 mmHg 77%
19:00 +16°C° 0 mm 3 mps 760 mmHg 87%
20:00 +16°C° 0.2 mm 3 mps 760 mmHg 87%
21:00 +16°C° 0.2 mm 3 mps 760 mmHg 87%
22:00 +16°C° 0.2 mm 3 mps 760 mmHg 88%
23:00 +14°C° 0.1 mm 3 mps 760 mmHg 88%

Tomorrow, 4 July, Saturday

Time Temperature Precipitation Wind Pressure Humidity
00:00 +14°C° 0.1 mm 4 mps 760 mmHg 89%
01:00 +13°C° 0.1 mm 4 mps 760 mmHg 90%
02:00 +13°C° 0 mm 4 mps 759 mmHg 91%
03:00 +12°C° 0 mm 4 mps 759 mmHg 93%
04:00 +12°C° 0 mm 5 mps 759 mmHg 94%
05:00 +11°C° 0 mm 4 mps 760 mmHg 91%
06:00 +10°C° 0 mm 4 mps 760 mmHg 89%
07:00 +8°C° 0 mm 4 mps 760 mmHg 87%
08:00 +11°C° 0 mm 4 mps 760 mmHg 73%
09:00 +13°C° 0 mm 4 mps 760 mmHg 60%
10:00 +15°C° 0 mm 4 mps 760 mmHg 47%
11:00 +17°C° 0 mm 4 mps 760 mmHg 43%
12:00 +18°C° 0 mm 4 mps 759 mmHg 39%
13:00 +19°C° 0 mm 4 mps 758 mmHg 36%
14:00 +19°C° 0 mm 4 mps 758 mmHg 37%
15:00 +19°C° 0 mm 4 mps 758 mmHg 39%
16:00 +19°C° 0 mm 3 mps 758 mmHg 41%
17:00 +16°C° 0 mm 3 mps 759 mmHg 46%
18:00 +13°C° 0 mm 3 mps 759 mmHg 52%
19:00 +10°C° 0 mm 3 mps 760 mmHg 57%
20:00 +10°C° 0 mm 4 mps 760 mmHg 59%
21:00 +8°C° 0 mm 4 mps 761 mmHg 61%
22:00 +7°C° 0 mm 4 mps 761 mmHg 62%
23:00 +8°C° 0 mm 3 mps 761 mmHg 63%

Day after tomorrow, 5 July, Sunday

Time Temperature Precipitation Wind Pressure Humidity
00:00 +7°C° 0 mm 3 mps 761 mmHg 64%
01:00 +7°C° 0 mm 3 mps 761 mmHg 64%
02:00 +7°C° 0 mm 2 mps 761 mmHg 65%
03:00 +7°C° 0 mm 2 mps 761 mmHg 66%
04:00 +6°C° 0 mm 2 mps 761 mmHg 66%
05:00 +6°C° 0 mm 2 mps 762 mmHg 66%
06:00 +6°C° 0 mm 2 mps 762 mmHg 66%
07:00 +6°C° 0 mm 2 mps 762 mmHg 66%
08:00 +11°C° 0 mm 1 mps 762 mmHg 57%
09:00 +14°C° 0 mm 1 mps 763 mmHg 47%
10:00 +18°C° 0 mm 1 mps 763 mmHg 38%
11:00 +19°C° 0 mm 1 mps 762 mmHg 35%
12:00 +20°C° 0 mm 1 mps 762 mmHg 33%
13:00 +21°C° 0 mm 1 mps 761 mmHg 31%
14:00 +20°C° 0 mm 1 mps 761 mmHg 36%
15:00 +19°C° 0 mm 1 mps 761 mmHg 42%
16:00 +18°C° 0 mm 1 mps 761 mmHg 47%
17:00 +15°C° 0 mm 1 mps 762 mmHg 53%
18:00 +13°C° 0 mm 1 mps 762 mmHg 60%
19:00 +11°C° 0 mm 1 mps 763 mmHg 66%
20:00 +10°C° 0 mm 2 mps 763 mmHg 66%
21:00 +10°C° 0 mm 2 mps 763 mmHg 66%
22:00 +10°C° 0 mm 2 mps 764 mmHg 66%
23:00 +10°C° 0 mm 2 mps 763 mmHg 66%

6 July, Monday

Time Temperature Precipitation Wind Pressure Humidity
00:00 +10°C° 0 mm 2 mps 763 mmHg 67%
01:00 +10°C° 0 mm 2 mps 763 mmHg 67%
02:00 +9°C° 0 mm 2 mps 763 mmHg 69%
03:00 +9°C° 0 mm 2 mps 763 mmHg 71%
04:00 +9°C° 0 mm 2 mps 763 mmHg 73%
05:00 +9°C° 0 mm 2 mps 764 mmHg 75%
06:00 +9°C° 0 mm 2 mps 764 mmHg 77%
07:00 +9°C° 0 mm 2 mps 765 mmHg 79%
08:00 +13°C° 0 mm 2 mps 765 mmHg 69%
09:00 +16°C° 0 mm 2 mps 765 mmHg 59%
10:00 +19°C° 0 mm 2 mps 765 mmHg 49%
11:00 +20°C° 0 mm 2 mps 764 mmHg 46%
12:00 +21°C° 0 mm 2 mps 764 mmHg 43%
13:00 +23°C° 0 mm 2 mps 763 mmHg 40%
14:00 +21°C° 0 mm 3 mps 763 mmHg 45%
15:00 +20°C° 0 mm 3 mps 763 mmHg 50%
16:00 +19°C° 0 mm 4 mps 763 mmHg 55%
17:00 +17°C° 0 mm 4 mps 764 mmHg 63%
18:00 +14°C° 0 mm 4 mps 764 mmHg 71%
19:00 +12°C° 0 mm 4 mps 764 mmHg 79%
20:00 +11°C° 0 mm 3 mps 765 mmHg 80%
21:00 +11°C° 0 mm 3 mps 765 mmHg 82%
22:00 +10°C° 0 mm 3 mps 765 mmHg 83%
23:00 +10°C° 0 mm 3 mps 765 mmHg 85%

7 July, Tuesday

Time Temperature Precipitation Wind Pressure Humidity
00:00 +10°C° 0 mm 3 mps 765 mmHg 87%
01:00 +10°C° 0 mm 3 mps 765 mmHg 88%
02:00 +10°C° 0 mm 3 mps 765 mmHg 91%
03:00 +10°C° 0 mm 3 mps 765 mmHg 93%
04:00 +10°C° 0 mm 3 mps 765 mmHg 96%
05:00 +10°C° 0 mm 3 mps 765 mmHg 96%
06:00 +10°C° 0 mm 3 mps 765 mmHg 96%
07:00 +10°C° 0 mm 3 mps 766 mmHg 96%
08:00 +13°C° 0 mm 3 mps 766 mmHg 83%
09:00 +17°C° 0 mm 3 mps 766 mmHg 71%
10:00 +20°C° 0 mm 3 mps 766 mmHg 59%
11:00 +20°C° 0 mm 4 mps 765 mmHg 58%
12:00 +20°C° 0 mm 4 mps 765 mmHg 57%
13:00 +21°C° 0 mm 5 mps 764 mmHg 56%
14:00 +20°C° 0.1 mm 5 mps 764 mmHg 59%
15:00 +20°C° 0.1 mm 5 mps 764 mmHg 61%
16:00 +19°C° 0.1 mm 5 mps 764 mmHg 64%
17:00 +17°C° 0.2 mm 5 mps 765 mmHg 72%
18:00 +15°C° 0.2 mm 5 mps 765 mmHg 80%
19:00 +13°C° 0.2 mm 5 mps 765 mmHg 88%
20:00 +14°C° 0.2 mm 4 mps 766 mmHg 88%
21:00 +14°C° 0.2 mm 4 mps 766 mmHg 88%
22:00 +14°C° 0.2 mm 4 mps 766 mmHg 87%
23:00 +14°C° 0.2 mm 4 mps 766 mmHg 88%

8 July, Wednesday

Time Temperature Precipitation Wind Pressure Humidity
00:00 +13°C° 0.2 mm 4 mps 765 mmHg 89%
01:00 +13°C° 0.2 mm 4 mps 765 mmHg 90%
02:00 +13°C° 0.1 mm 4 mps 765 mmHg 91%
03:00 +12°C° 0.1 mm 4 mps 765 mmHg 93%
04:00 +12°C° 0.1 mm 4 mps 765 mmHg 95%
05:00 +12°C° 0.1 mm 4 mps 765 mmHg 94%
06:00 +12°C° 0.1 mm 4 mps 765 mmHg 93%
07:00 +12°C° 0.1 mm 4 mps 766 mmHg 92%
08:00 +14°C° 0 mm 4 mps 766 mmHg 81%
09:00 +17°C° 0 mm 4 mps 766 mmHg 71%
10:00 +19°C° 0 mm 4 mps 766 mmHg 60%
11:00 +19°C° 0 mm 4 mps 765 mmHg 57%
12:00 +20°C° 0 mm 4 mps 765 mmHg 54%
13:00 +21°C° 0 mm 4 mps 764 mmHg 51%
14:00 +20°C° 0 mm 4 mps 764 mmHg 55%
15:00 +19°C° 0 mm 4 mps 764 mmHg 60%
16:00 +18°C° 0 mm 4 mps 764 mmHg 64%
17:00 +17°C° 0 mm 3 mps 764 mmHg 67%
18:00 +16°C° 0 mm 3 mps 765 mmHg 70%
19:00 +14°C° 0 mm 3 mps 765 mmHg 72%
20:00 +14°C° 0 mm 3 mps 765 mmHg 73%
21:00 +14°C° 0 mm 3 mps 765 mmHg 74%
22:00 +14°C° 0 mm 3 mps 765 mmHg 75%
23:00 +13°C° 0 mm 3 mps 765 mmHg 81%
Show more